Time,TemperatureF,DewpointF,PressureIn,WindDirection,WindDirectionDegrees,WindSpeedMPH,WindSpeedGustMPH,Humidity,HourlyPrecipIn,Conditions,Clouds,dailyrainin,SoftwareType,DateUTC
2013-02-09 00:01:00,37.0,30.0,29.91,SE,140,12.0,-999.0,74,-99.99,,,-99.99,,2013-02-09 06:01:00,
2013-02-09 00:11:00,37.0,30.0,29.91,SE,130,8.0,-999.0,74,-99.99,,,-99.99,,2013-02-09 06:11:00,
2013-02-09 00:21:00,37.0,30.0,29.90,SE,140,10.0,-999.0,74,-99.99,,,-99.99,,2013-02-09 06:21:00,
2013-02-09 00:31:00,37.0,30.0,29.90,SE,140,7.0,-999.0,74,-99.99,,,-99.99,,2013-02-09 06:31:00,
2013-02-09 00:41:00,37.0,30.0,29.90,SSE,150,10.0,16.0,74,-99.99,,,-99.99,,2013-02-09 06:41:00,
2013-02-09 00:52:00,37.0,30.0,29.89,SE,140,8.0,-999.0,74,-99.99,,,-99.99,,2013-02-09 06:52:00,
2013-02-09 01:01:00,37.0,30.0,29.89,SE,140,8.0,-999.0,74,-99.99,,,-99.99,,2013-02-09 07:01:00,
2013-02-09 01:11:00,37.0,30.0,29.89,SE,140,7.0,-999.0,74,-99.99,,,-99.99,,2013-02-09 07:11:00,
2013-02-09 01:21:00,37.0,30.0,29.89,SE,140,10.0,16.0,74,-99.99,,,-99.99,,2013-02-09 07:21:00,
2013-02-09 01:31:00,37.0,30.0,29.89,SSE,150,12.0,16.0,74,-99.99,,,-99.99,,2013-02-09 07:31:00,
2013-02-09 01:42:00,37.0,30.0,29.88,SE,140,12.0,16.0,74,-99.99,,,-99.99,,2013-02-09 07:42:00,
2013-02-09 01:52:00,37.0,30.0,29.88,SE,140,10.0,18.0,74,-99.99,,,-99.99,,2013-02-09 07:52:00,
2013-02-09 02:01:00,37.0,30.0,29.88,SE,140,10.0,18.0,74,-99.99,,,-99.99,,2013-02-09 08:01:00,
2013-02-09 02:11:00,37.0,30.0,29.88,SSE,150,12.0,17.0,74,-99.99,,,-99.99,,2013-02-09 08:11:00,
2013-02-09 02:21:00,37.0,30.0,29.87,SSE,150,12.0,17.0,74,-99.99,,,-99.99,,2013-02-09 08:21:00,
2013-02-09 02:31:00,37.0,30.0,29.87,SE,140,10.0,-999.0,74,-99.99,,,-99.99,,2013-02-09 08:31:00,
2013-02-09 02:41:00,37.0,30.0,29.87,SE,140,13.0,17.0,74,-99.99,,,-99.99,,2013-02-09 08:41:00,
2013-02-09 02:52:00,37.0,30.0,29.87,SE,140,12.0,21.0,74,-99.99,,,-99.99,,2013-02-09 08:52:00,
2013-02-09 03:02:00,37.0,30.0,29.87,SE,140,12.0,21.0,74,-99.99,,,-99.99,,2013-02-09 09:02:00,
2013-02-09 03:11:00,36.0,30.0,29.86,SE,140,14.0,17.0,80,-99.99,,,-99.99,,2013-02-09 09:11:00,
2013-02-09 03:21:00,36.0,30.0,29.85,SSE,150,12.0,20.0,80,-99.99,,,-99.99,,2013-02-09 09:21:00,
2013-02-09 03:31:00,36.0,30.0,29.85,SSE,150,13.0,23.0,80,-99.99,,,-99.99,,2013-02-09 09:31:00,
2013-02-09 03:41:00,36.0,30.0,29.84,SSE,150,14.0,21.0,80,-99.99,,,-99.99,,2013-02-09 09:41:00,
2013-02-09 03:52:00,36.0,30.0,29.84,SSE,150,14.0,21.0,80,-99.99,,,-99.99,,2013-02-09 09:52:00,
2013-02-09 04:01:00,36.0,30.0,29.84,SSE,150,14.0,21.0,80,-99.99,,,-99.99,,2013-02-09 10:01:00,
2013-02-09 04:11:00,36.0,30.0,29.84,SSE,150,13.0,21.0,80,-99.99,,,-99.99,,2013-02-09 10:11:00,
2013-02-09 04:21:00,36.0,30.0,29.84,SSE,150,10.0,22.0,80,-99.99,,,-99.99,,2013-02-09 10:21:00,
2013-02-09 04:31:00,36.0,30.0,29.83,SSE,150,12.0,18.0,80,-99.99,,,-99.99,,2013-02-09 10:31:00,
2013-02-09 04:41:00,36.0,30.0,29.83,SSE,160,13.0,-999.0,80,-99.99,,,-99.99,,2013-02-09 10:41:00,
2013-02-09 04:52:00,36.0,30.0,29.83,SSE,150,12.0,-999.0,80,-99.99,,,-99.99,,2013-02-09 10:52:00,
2013-02-09 05:01:00,36.0,30.0,29.83,SSE,150,12.0,-999.0,80,-99.99,,,-99.99,,2013-02-09 11:01:00,
2013-02-09 05:11:00,36.0,30.0,29.83,SSE,150,12.0,-999.0,80,-99.99,,,-99.99,,2013-02-09 11:11:00,
2013-02-09 05:21:00,36.0,30.0,29.83,SSE,150,13.0,20.0,80,-99.99,,,-99.99,,2013-02-09 11:21:00,
2013-02-09 05:31:00,36.0,30.0,29.83,SSE,150,14.0,-999.0,80,-99.99,,,-99.99,,2013-02-09 11:31:00,
2013-02-09 05:41:00,36.0,30.0,29.83,SSE,150,16.0,21.0,80,-99.99,,,-99.99,,2013-02-09 11:41:00,
2013-02-09 05:52:00,36.0,30.0,29.82,SE,140,13.0,-999.0,80,-99.99,,,-99.99,,2013-02-09 11:52:00,
2013-02-09 06:02:00,36.0,30.0,29.82,SE,140,13.0,-999.0,80,-99.99,,,-99.99,,2013-02-09 12:02:00,
2013-02-09 06:11:00,36.0,30.0,29.82,SSE,150,15.0,-999.0,80,-99.99,,,-99.99,,2013-02-09 12:11:00,
2013-02-09 06:21:00,36.0,30.0,29.82,SSE,150,13.0,-999.0,80,-99.99,,,-99.99,,2013-02-09 12:21:00,
2013-02-09 06:32:00,36.0,30.0,29.82,SE,140,15.0,21.0,80,-99.99,,,-99.99,,2013-02-09 12:32:00,
2013-02-09 06:42:00,36.0,30.0,29.82,SE,140,14.0,21.0,80,-99.99,,,-99.99,,2013-02-09 12:42:00,
2013-02-09 06:52:00,36.0,30.0,29.82,SE,140,12.0,17.0,80,-99.99,,,-99.99,,2013-02-09 12:52:00,
2013-02-09 07:02:00,36.0,30.0,29.82,SE,140,12.0,17.0,80,-99.99,,,-99.99,,2013-02-09 13:02:00,
2013-02-09 07:11:00,36.0,30.0,29.81,SSE,150,14.0,20.0,80,-99.99,,,-99.99,,2013-02-09 13:11:00,
2013-02-09 07:21:00,36.0,30.0,29.81,SSE,150,12.0,18.0,80,-99.99,,,-99.99,,2013-02-09 13:21:00,
2013-02-09 07:32:00,36.0,30.0,29.81,SSE,150,13.0,22.0,80,-99.99,,,-99.99,,2013-02-09 13:32:00,
2013-02-09 07:42:00,36.0,30.0,29.81,SSE,150,9.0,22.0,80,-99.99,,,-99.99,,2013-02-09 13:42:00,
2013-02-09 07:52:00,36.0,30.0,29.81,SSE,150,12.0,18.0,80,-99.99,,,-99.99,,2013-02-09 13:52:00,
2013-02-09 08:01:00,36.0,30.0,29.81,SSE,150,12.0,18.0,80,-99.99,,,-99.99,,2013-02-09 14:01:00,
2013-02-09 08:11:00,36.0,30.0,29.81,SSE,150,14.0,20.0,80,-99.99,,,-99.99,,2013-02-09 14:11:00,
2013-02-09 08:21:00,36.0,32.0,29.81,SSE,150,15.0,22.0,86,-99.99,,,-99.99,,2013-02-09 14:21:00,
2013-02-09 08:31:00,36.0,32.0,29.81,SSE,150,16.0,23.0,86,-99.99,,,-99.99,,2013-02-09 14:31:00,
2013-02-09 08:41:00,36.0,32.0,29.81,SSE,150,16.0,23.0,86,-99.99,,,-99.99,,2013-02-09 14:41:00,
2013-02-09 08:52:00,36.0,32.0,29.81,SSE,150,17.0,22.0,86,-99.99,,,-99.99,,2013-02-09 14:52:00,
2013-02-09 09:01:00,36.0,32.0,29.81,SSE,150,17.0,22.0,86,-99.99,,,-99.99,,2013-02-09 15:01:00,
2013-02-09 09:11:00,37.0,34.0,29.81,SSE,150,18.0,28.0,86,-99.99,,,-99.99,,2013-02-09 15:11:00,
2013-02-09 09:21:00,39.0,34.0,29.81,SSE,150,14.0,22.0,80,-99.99,,,-99.99,,2013-02-09 15:21:00,
2013-02-09 09:32:00,39.0,34.0,29.80,SSE,150,17.0,24.0,80,-99.99,,,-99.99,,2013-02-09 15:32:00,
2013-02-09 09:41:00,39.0,34.0,29.80,SSE,150,18.0,24.0,80,-99.99,,,-99.99,,2013-02-09 15:41:00,
2013-02-09 09:52:00,41.0,34.0,29.80,SSE,150,17.0,23.0,75,-99.99,,,-99.99,,2013-02-09 15:52:00,
2013-02-09 10:01:00,41.0,34.0,29.80,SSE,150,17.0,23.0,75,-99.99,,,-99.99,,2013-02-09 16:01:00,
2013-02-09 10:11:00,43.0,34.0,29.79,SSE,150,21.0,29.0,70,-99.99,,,-99.99,,2013-02-09 16:11:00,
2013-02-09 10:22:00,43.0,34.0,29.78,SSE,160,25.0,29.0,70,-99.99,,,-99.99,,2013-02-09 16:22:00,
2013-02-09 10:31:00,45.0,34.0,29.77,SSE,150,23.0,33.0,65,-99.99,,,-99.99,,2013-02-09 16:31:00,
2013-02-09 10:41:00,45.0,34.0,29.77,SSE,160,22.0,31.0,65,-99.99,,,-99.99,,2013-02-09 16:41:00,
2013-02-09 10:52:00,45.0,34.0,29.77,SSE,150,25.0,32.0,65,-99.99,,,-99.99,,2013-02-09 16:52:00,
2013-02-09 11:01:00,45.0,34.0,29.77,SSE,150,25.0,32.0,65,-99.99,,,-99.99,,2013-02-09 17:01:00,
2013-02-09 11:11:00,46.0,34.0,29.77,SSE,150,22.0,28.0,61,-99.99,,,-99.99,,2013-02-09 17:11:00,
2013-02-09 11:21:00,45.0,36.0,29.77,SSE,160,25.0,30.0,70,-99.99,,,-99.99,,2013-02-09 17:21:00,
2013-02-09 11:32:00,45.0,34.0,29.76,SSE,160,22.0,31.0,65,-99.99,,,-99.99,,2013-02-09 17:32:00,
2013-02-09 11:41:00,45.0,36.0,29.76,SSE,150,20.0,31.0,70,-99.99,,,-99.99,,2013-02-09 17:41:00,
2013-02-09 11:52:00,48.0,36.0,29.75,SSE,150,16.0,27.0,61,-99.99,,,-99.99,,2013-02-09 17:52:00,
2013-02-09 12:01:00,48.0,36.0,29.75,SSE,150,16.0,27.0,61,-99.99,,,-99.99,,2013-02-09 18:01:00,
2013-02-09 12:12:00,48.0,36.0,29.75,SSE,160,20.0,27.0,61,-99.99,,,-99.99,,2013-02-09 18:12:00,
2013-02-09 12:23:00,48.0,36.0,29.73,SSE,150,16.0,25.0,61,-99.99,,,-99.99,,2013-02-09 18:23:00,
2013-02-09 12:32:00,48.0,36.0,29.72,SSE,160,20.0,28.0,61,-99.99,,,-99.99,,2013-02-09 18:32:00,
2013-02-09 12:42:00,48.0,36.0,29.72,SSE,160,21.0,28.0,61,-99.99,,,-99.99,,2013-02-09 18:42:00,
2013-02-09 12:52:00,48.0,36.0,29.71,SSE,150,17.0,23.0,61,-99.99,,,-99.99,,2013-02-09 18:52:00,
2013-02-09 13:01:00,48.0,36.0,29.71,SSE,150,17.0,23.0,61,-99.99,,,-99.99,,2013-02-09 19:01:00,
2013-02-09 13:11:00,48.0,37.0,29.68,SSE,150,17.0,24.0,66,-99.99,,,-99.99,,2013-02-09 19:11:00,
2013-02-09 13:22:00,52.0,37.0,29.68,SSE,160,20.0,30.0,57,-99.99,,,-99.99,,2013-02-09 19:22:00,
2013-02-09 13:31:00,50.0,37.0,29.67,SSE,150,17.0,27.0,61,-99.99,,,-99.99,,2013-02-09 19:31:00,
2013-02-09 13:41:00,50.0,37.0,29.66,SE,140,18.0,24.0,61,-99.99,,,-99.99,,2013-02-09 19:41:00,
2013-02-09 13:52:00,50.0,39.0,29.65,SE,140,17.0,27.0,66,-99.99,,,-99.99,,2013-02-09 19:52:00,
2013-02-09 14:01:00,50.0,39.0,29.65,SE,140,17.0,27.0,66,-99.99,,,-99.99,,2013-02-09 20:01:00,
2013-02-09 14:11:00,52.0,39.0,29.63,SSE,150,18.0,25.0,61,-99.99,,,-99.99,,2013-02-09 20:11:00,
2013-02-09 14:21:00,55.0,43.0,29.62,SE,140,20.0,28.0,62,-99.99,,,-99.99,,2013-02-09 20:21:00,
2013-02-09 14:31:00,54.0,43.0,29.60,SE,130,21.0,28.0,66,-99.99,,,-99.99,,2013-02-09 20:31:00,
2013-02-09 14:41:00,55.0,43.0,29.60,SE,140,25.0,31.0,62,-99.99,,,-99.99,,2013-02-09 20:41:00,
2013-02-09 14:52:00,55.0,43.0,29.60,SSE,150,22.0,31.0,62,-99.99,,,-99.99,,2013-02-09 20:52:00,
2013-02-09 15:11:00,54.0,45.0,29.58,SSE,150,22.0,32.0,71,-99.99,,,-99.99,,2013-02-09 21:11:00,
2013-02-09 15:21:00,54.0,45.0,29.57,SE,140,18.0,28.0,71,-99.99,,,-99.99,,2013-02-09 21:21:00,
2013-02-09 15:31:00,54.0,45.0,29.56,SE,140,25.0,35.0,71,-99.99,,,-99.99,,2013-02-09 21:31:00,
2013-02-09 15:41:00,55.0,45.0,29.56,SE,140,20.0,33.0,66,-99.99,,,-99.99,,2013-02-09 21:41:00,
2013-02-09 15:52:00,55.0,45.0,29.56,SE,140,20.0,31.0,66,-99.99,,,-99.99,,2013-02-09 21:52:00,
2013-02-09 16:01:00,55.0,45.0,29.56,SE,140,20.0,31.0,66,-99.99,,,-99.99,,2013-02-09 22:01:00,
2013-02-09 16:11:00,54.0,45.0,29.55,SSE,150,20.0,31.0,71,-99.99,,,-99.99,,2013-02-09 22:11:00,
2013-02-09 16:21:00,54.0,45.0,29.55,SSE,150,22.0,30.0,71,-99.99,,,-99.99,,2013-02-09 22:21:00,
2013-02-09 16:32:00,54.0,45.0,29.54,SSE,150,21.0,31.0,71,-99.99,,,-99.99,,2013-02-09 22:32:00,
2013-02-09 16:41:00,54.0,45.0,29.54,SE,140,22.0,31.0,71,-99.99,,,-99.99,,2013-02-09 22:41:00,
2013-02-09 16:52:00,52.0,45.0,29.53,SE,140,17.0,31.0,76,-99.99,,,-99.99,,2013-02-09 22:52:00,
2013-02-09 17:01:00,52.0,45.0,29.53,SE,140,17.0,31.0,76,-99.99,,,-99.99,,2013-02-09 23:01:00,
2013-02-09 17:11:00,52.0,45.0,29.54,SSE,150,24.0,29.0,76,-99.99,,,-99.99,,2013-02-09 23:11:00,
2013-02-09 17:21:00,52.0,45.0,29.53,SE,140,27.0,36.0,76,-99.99,,,-99.99,,2013-02-09 23:21:00,
2013-02-09 17:31:00,50.0,45.0,29.53,SSE,150,20.0,33.0,81,-99.99,,,-99.99,,2013-02-09 23:31:00,
2013-02-09 17:42:00,50.0,45.0,29.53,SSE,150,21.0,29.0,81,-99.99,,,-99.99,,2013-02-09 23:42:00,
2013-02-09 17:52:00,48.0,45.0,29.53,SE,140,24.0,33.0,87,-99.99,,,-99.99,,2013-02-09 23:52:00,
2013-02-09 18:02:00,48.0,45.0,29.53,SE,140,24.0,33.0,87,-99.99,,,-99.99,,2013-02-10 00:02:00,
2013-02-09 18:11:00,48.0,45.0,29.52,SE,130,22.0,32.0,87,-99.99,,,-99.99,,2013-02-10 00:11:00,
2013-02-09 18:21:00,46.0,45.0,29.52,SE,140,20.0,35.0,93,-99.99,,,-99.99,,2013-02-10 00:21:00,
2013-02-09 18:32:00,46.0,45.0,29.52,SE,140,20.0,29.0,93,-99.99,,,-99.99,,2013-02-10 00:32:00,
2013-02-09 18:41:00,45.0,45.0,29.51,SE,140,18.0,33.0,100,-99.99,,,-99.99,,2013-02-10 00:41:00,
2013-02-09 18:52:00,45.0,45.0,29.52,SE,130,17.0,28.0,100,-99.99,,,-99.99,,2013-02-10 00:52:00,
2013-02-09 19:01:00,45.0,45.0,29.52,SE,130,17.0,28.0,100,-99.99,,,-99.99,,2013-02-10 01:01:00,
2013-02-09 19:12:00,45.0,45.0,29.52,SE,130,22.0,27.0,100,-99.99,,,-99.99,,2013-02-10 01:12:00,
2013-02-09 19:21:00,45.0,45.0,29.54,SE,140,18.0,28.0,100,-99.99,,,-99.99,,2013-02-10 01:21:00,
2013-02-09 19:31:00,45.0,45.0,29.52,SE,140,18.0,24.0,100,-99.99,,,-99.99,,2013-02-10 01:31:00,
2013-02-09 19:41:00,45.0,45.0,29.51,SE,140,22.0,29.0,100,-99.99,,,-99.99,,2013-02-10 01:41:00,
2013-02-09 19:52:00,43.0,43.0,29.51,SE,140,20.0,30.0,100,-99.99,,,-99.99,,2013-02-10 01:52:00,
2013-02-09 20:01:00,43.0,43.0,29.51,SE,140,20.0,30.0,100,-99.99,,,-99.99,,2013-02-10 02:01:00,
2013-02-09 20:11:00,43.0,43.0,29.52,SE,140,16.0,29.0,100,-99.99,,,-99.99,,2013-02-10 02:11:00,
2013-02-09 20:22:00,43.0,43.0,29.53,SE,140,17.0,28.0,100,-99.99,,,-99.99,,2013-02-10 02:22:00,
2013-02-09 20:31:00,43.0,43.0,29.52,SE,140,16.0,23.0,100,-99.99,,,-99.99,,2013-02-10 02:31:00,
2013-02-09 20:41:00,43.0,43.0,29.52,SE,140,17.0,23.0,100,-99.99,,,-99.99,,2013-02-10 02:41:00,
2013-02-09 20:52:00,43.0,43.0,29.52,SE,140,15.0,23.0,100,-99.99,,,-99.99,,2013-02-10 02:52:00,
2013-02-09 21:01:00,43.0,43.0,29.52,SE,140,15.0,23.0,100,-99.99,,,-99.99,,2013-02-10 03:01:00,
2013-02-09 21:11:00,43.0,43.0,29.50,SE,130,14.0,22.0,100,-99.99,,,-99.99,,2013-02-10 03:11:00,
2013-02-09 21:21:00,41.0,41.0,29.51,SE,130,15.0,22.0,100,-99.99,,,-99.99,,2013-02-10 03:21:00,
2013-02-09 21:32:00,41.0,41.0,29.51,SE,130,16.0,28.0,100,-99.99,,,-99.99,,2013-02-10 03:32:00,
2013-02-09 21:41:00,41.0,41.0,29.50,SE,130,16.0,23.0,100,-99.99,,,-99.99,,2013-02-10 03:41:00,
2013-02-09 21:52:00,41.0,41.0,29.49,ESE,120,14.0,-999.0,100,-99.99,,,-99.99,,2013-02-10 03:52:00,
2013-02-09 22:01:00,41.0,41.0,29.49,ESE,120,14.0,-999.0,100,-99.99,,,-99.99,,2013-02-10 04:01:00,
2013-02-09 22:11:00,39.0,39.0,29.48,ESE,120,14.0,23.0,100,-99.99,,,-99.99,,2013-02-10 04:11:00,
2013-02-09 22:21:00,39.0,39.0,29.47,ESE,120,15.0,-999.0,100,-99.99,,,-99.99,,2013-02-10 04:21:00,
2013-02-09 22:32:00,39.0,39.0,29.46,ESE,120,13.0,21.0,100,-99.99,,,-99.99,,2013-02-10 04:32:00,
2013-02-09 22:41:00,39.0,39.0,29.46,ESE,120,15.0,20.0,100,-99.99,,,-99.99,,2013-02-10 04:41:00,
2013-02-09 22:52:00,39.0,39.0,29.46,ESE,120,12.0,20.0,100,-99.99,,,-99.99,,2013-02-10 04:52:00,
2013-02-09 23:01:00,39.0,39.0,29.46,ESE,120,12.0,20.0,100,-99.99,,,-99.99,,2013-02-10 05:01:00,
2013-02-09 23:11:00,39.0,39.0,29.45,ESE,110,13.0,16.0,100,-99.99,,,-99.99,,2013-02-10 05:11:00,
2013-02-09 23:22:00,39.0,39.0,29.44,ESE,120,12.0,18.0,100,-99.99,,,-99.99,,2013-02-10 05:22:00,
2013-02-09 23:31:00,39.0,39.0,29.43,ESE,120,13.0,16.0,100,-99.99,,,-99.99,,2013-02-10 05:31:00,
2013-02-09 23:41:00,39.0,39.0,29.41,East,100,8.0,16.0,100,-99.99,,,-99.99,,2013-02-10 05:41:00,
2013-02-09 23:52:00,39.0,39.0,29.41,ESE,110,12.0,16.0,100,-99.99,,,-99.99,,2013-02-10 05:52:00,